sat.trackr.live / text

‹ back to catalog

KINEIS-4C

NORAD 63301 · 2025-056B

PAYLOAD ACTIVE UNKNOWN

§ Identity

Operator
Country
FR
Launch date
2025-03-18
Launch site
RLLB
Launch vehicle
Mass (kg)
RCS (m²)

External: N2YO · Heavens-Above · Gunter

§ Orbital elements

Epoch: 2026-05-25T03:41:44.297952Z

Period
97.80 min
Inclination
97.9065°
Eccentricity
0.0004485
Mean motion
14.72391539 rev/d
Perigee alt
650.3 km
Apogee alt
656.6 km
Semi-major
7,031.6 km
B*
2.1312e-4
RAAN
269.9062°
Arg perigee
54.8977°
Mean anomaly
305.2650°
Rev number
6,374

§ Raw data

KINEIS-4C1 63301U 25056B   26145.15398493  .00001301  00000+0  21312-3 0  99972 63301  97.9065 269.9062 0004485  54.8977 305.2650 14.72391539 63741

JSON: /api/v1/satellites/63301 · /tle

For live sub-satellite position, see the globe view (requires WebGL).

§ Visibility from observer

Set your observer location to see the next 7 days of passes ≥ 10°. The values pass through the URL so the page stays shareable.

No JS? Fill the form by hand. The geolocation button needs JavaScript.

§ Radio — SatNOGS DB

ModeDescriptionDownlinkUplink
BPSK PMT-A3 Mode U 400.651 MHz
BPSK S-band telemetry 2.266 GHz

2 transmitters · refreshed weekly from db.satnogs.org